Flag for Germany Past Weather in Landau in der Pfalz, Rhineland-Palatinate, Germany — Yesterday and Last 2 Weeks

Now
75 °F

Passing clouds.


Feels Like: 78 °F
Forecast: 58 / 76 °F
Wind: 8 mph from Southwest

Location: Mannheim City

Current Time: Jul 28, 2016 at 4:42:34 PM

Latest Report: Jul 28, 2016 at 3:50 PM


Visibility: N/A

Pressure: 30.01 "Hg

Humidity: 54%

Dew Point: 57 °F

Location of Landau in der PfalzLocation

Past Weather in Landau in der Pfalz — Graph

°F

Landau in der Pfalz Temperature Yesterday

Maximum temperature yesterday: 81 °F (at 4:20 PM)
Minimum temperature yesterday: 66 °F (at 5:20 AM)
Average temperature yesterday: 75 °F

High & Low Weather Summary for the Past Weeks

 TemperatureHumidityPressure
High95 °F (Jul 20, 4:50 PM)100% (Jul 21, 6:50 AM)30.33 "Hg (Jul 21, 6:50 AM)
Low55 °F (Jul 16, 7:20 AM)20% (Jul 20, 5:50 PM)29.89 "Hg (Jul 20, 5:50 PM)
Average74 °F62%30.09 "Hg
* Reported Jul 13 3:20 PM — Jul 28 3:20 PM, Landau in der Pfalz, Weather by CustomWeather, © 2016

Note: Actual official high and low records may vary slightly from our data, if they occured in-between our weather recording intervals... More about our weather records

Advertising

Landau in der Pfalz Weather History for the Previous 24 Hours

Scroll right to see more
 ConditionsComfort  
Time TempWeatherWind HumidityBarometerVisibility
3:20 PM
Thu, Jul 28
77 °FBroken clouds.9 mph54%30.01 "HgN/A
2:50 PM75 °FPartly sunny.7 mph54%30.04 "HgN/A
2:20 PM75 °FBroken clouds.8 mph54%30.04 "HgN/A
1:50 PM75 °FPartly sunny.8 mph57%30.04 "HgN/A
1:20 PM75 °FBroken clouds.7 mph61%30.04 "HgN/A
12:50 PM73 °FLight rain. Broken clouds.6 mph65%30.04 "HgN/A
12:20 PM73 °FPartly sunny.6 mph57%30.04 "HgN/A
11:50 AM73 °FOvercast.6 mph61%30.04 "HgN/A
11:20 AM73 °FPartly sunny.5 mph61%30.04 "HgN/A
10:50 AM73 °FPassing clouds.5 mph61%30.04 "HgN/A
10:20 AM73 °FPassing clouds.6 mph61%30.04 "HgN/A
9:50 AM72 °FPassing clouds.5 mph65%30.04 "HgN/A
9:20 AM70 °FPassing clouds.5 mph73%30.04 "HgN/A
8:50 AM68 °FPassing clouds.5 mph78%30.04 "HgN/A
8:20 AM68 °FSunny.3 mph83%30.04 "Hg10 mi
7:50 AM66 °FPassing clouds.3 mph83%30.04 "HgN/A
7:20 AM64 °FPassing clouds.3 mph88%30.04 "HgN/A
6:50 AM64 °FPassing clouds.5 mph88%30.04 "HgN/A
6:20 AM64 °FClear.5 mph88%30.04 "Hg10 mi
5:50 AM66 °FPassing clouds.3 mph83%30.04 "HgN/A
5:20 AM68 °FPassing clouds.3 mph73%30.04 "HgN/A
8:50 PM
Wed, Jul 27
77 °FPassing clouds.9 mph44%30.04 "HgN/A
8:20 PM77 °FPassing clouds.12 mph44%30.01 "HgN/A
7:50 PM77 °FPassing clouds.9 mph44%30.01 "HgN/A
7:20 PM79 °FPassing clouds.12 mph42%30.01 "HgN/A
6:50 PM79 °FPassing clouds.8 mph42%30.01 "HgN/A
6:20 PM79 °FPassing clouds.9 mph45%30.01 "HgN/A
5:50 PM79 °FPassing clouds.13 mph45%30.01 "HgN/A
5:20 PM81 °FPassing clouds.9 mph45%30.01 "HgN/A
4:50 PM81 °FPassing clouds.12 mph42%30.01 "HgN/A
4:20 PM81 °FPassing clouds.7 mph42%30.01 "HgN/A
Weather by CustomWeather, © 2016

See weather overviewHow to use our weather pages